Location: *
(34.6903°N, 135.5184°E)
Time: 10:17:03
(UTC+00:00)

Atlas Centaur 2 - Pass Details

Date: 22 September 2019
Orbit: 459 x 1311 km, 30.4° (Epoch: 13 October)

Event Time Altitude Azimuth Distance (km) Brightness Sun altitude
Exits shadow 19:29:31 22° 235° (SW) 2,023 3.6 -16.4°
Maximum altitude 19:32:07 28° 201° (SSW) 1,866 3.7 -15.9°
Drops below altitude 10° 19:38:22 10° 147° (SSE) 3,093 5.4 -14.7°
Sets 19:41:53 0° 136° (SE) 4,157 6.3 -14.0°
